Weather History for McCall, ID

Change the Weather History Date:

Wednesday, May 29, 2013

  Actual Average Record
Temperature  
Mean Temperature 43 °F 49 °F  
Max Temperature 51 °F 62 °F 87 °F (2003)
Min Temperature 34 °F 35 °F 23 °F (1973)
Degree Days  
Heating Degree Days 22 16  
Month to date heating degree days 443 562  
Since 1 July heating degree days 8334 9197  
Cooling Degree Days 0 0  
Month to date cooling degree days 0 0  
Year to date cooling degree days 0 0  
Moisture  
Dew Point 38 °F    
Average Humidity 82    
Maximum Humidity 92    
Minimum Humidity 71    
Precipitation  
Precipitation 0.24 in 0.08 in 1.03 in (1988)
Month to date precipitation 1.69 2.06  
Year to date precipitation 9.31 9.65  
Sea Level Pressure  
Sea Level Pressure 29.79 in    
Wind  
Wind Speed 3 mph (South)    
Max Wind Speed 18 mph    
Max Gust Speed 24 mph    
Visibility 9 miles    
Events Rain    
T = Trace of Precipitation, MM = Missing Value Source: NWS Daily Summary

Daily Weather History Graph

Daily Weather History Graph

Search for Another Location

Airport:

Trip Planner

Search our weather history database for the weather conditions in past years. The results will help you decide how hot, cold, wet, or windy it might be!

Date:

Astronomy

May. 29, 2013 Rise Set
Actual Time 6:02 AM MDT 9:21 PM MDT
Civil Twilight 5:27 AM MDT 9:57 PM MDT
Nautical Twilight 4:40 AM MDT 10:44 PM MDT
Astronomical Twilight 3:42 AM MDT 11:42 PM MDT
Moon 12:40 AM MDT (5/29) 11:14 AM MDT (5/29)
Length of Visible Light 16h 30m
Length of Day
15h 18m
Waning Gibbous, 72% of the Moon is Illuminated
May 29
Waning Gibbous
May 31
Last Quarter
Jun 8
New
Jun 16
First Quarter
Jun 23
Full

Hourly Weather History & Observations

Time (MDT) Temp. Windchill Dew Point Humidity Pressure Visibility Wind Dir Wind Speed Gust Speed Precip Events Conditions
12:51 AM 39.9 °F - 37.0 °F 89% 29.83 in 10.0 mi Calm Calm - N/A   Clear
1:51 AM 37.9 °F - 36.0 °F 93% 29.83 in 10.0 mi Calm Calm - N/A   Clear
2:51 AM 36.0 °F - 34.0 °F 93% 29.81 in 10.0 mi Calm Calm - N/A   Clear
3:51 AM 37.0 °F - 34.0 °F 89% 29.79 in 10.0 mi Calm Calm - N/A   Clear
4:24 AM 33.8 °F - 33.8 °F 100% 29.79 in 1.8 mi Calm Calm - N/A   Partly Cloudy
4:34 AM 33.8 °F - 33.8 °F 100% 29.79 in 2.0 mi Calm Calm - N/A   Mostly Cloudy
4:41 AM 35.6 °F - 33.8 °F 93% 29.79 in 9.0 mi Calm Calm - N/A   Mostly Cloudy
4:51 AM 36.0 °F - 34.0 °F 93% 29.78 in 10.0 mi Calm Calm - N/A   Overcast
4:58 AM 35.6 °F - 35.6 °F 100% 29.79 in 10.0 mi Calm Calm - N/A   Overcast
5:51 AM 37.9 °F - 35.1 °F 89% 29.75 in 10.0 mi Calm Calm - N/A   Overcast
6:14 AM 37.4 °F - 33.8 °F 87% 29.76 in 10.0 mi Calm Calm - N/A   Scattered Clouds
6:51 AM 37.0 °F - 35.1 °F 93% 29.73 in 10.0 mi Calm Calm - N/A   Partly Cloudy
7:02 AM 37.4 °F - 35.6 °F 93% 29.75 in 10.0 mi Calm Calm - N/A   Mostly Cloudy
7:38 AM 39.2 °F - 37.4 °F 93% 29.74 in 10.0 mi Calm Calm - N/A   Overcast
7:51 AM 39.9 °F - 37.9 °F 93% 29.72 in 4.0 mi Calm Calm - N/A   Overcast
8:51 AM 42.1 °F - 39.0 °F 89% 29.71 in 10.0 mi Calm Calm - N/A   Overcast
9:02 AM 42.8 °F - 39.2 °F 87% 29.74 in 10.0 mi Calm Calm - N/A   Overcast
9:51 AM 43.0 °F 41.3 °F 39.0 °F 86% 29.72 in 10.0 mi Variable 3.5 mph - N/A   Overcast
10:05 AM 42.8 °F - 39.2 °F 87% 29.75 in 10.0 mi Calm Calm - N/A   Overcast
10:51 AM 45.0 °F - 39.9 °F 82% 29.72 in 10.0 mi Calm Calm - 0.00 in Rain Light Rain
11:13 AM 44.6 °F 41.4 °F 39.2 °F 81% 29.75 in 10.0 mi SSE 5.8 mph - 0.01 in Rain Light Rain
11:26 AM 44.6 °F 41.4 °F 41.0 °F 87% 29.75 in 7.0 mi South 5.8 mph - 0.02 in Rain Light Rain
11:41 AM 42.8 °F 38.0 °F 37.4 °F 81% 29.76 in 2.5 mi SSE 8.1 mph - 0.08 in Rain Rain
11:47 AM 42.8 °F 38.0 °F 39.2 °F 87% 29.76 in 7.0 mi SSE 8.1 mph - 0.09 in Rain Light Rain
11:51 AM 45.0 °F 40.1 °F 39.9 °F 82% 29.74 in 9.0 mi South 9.2 mph - 0.09 in Rain Light Rain
12:51 PM 44.1 °F 40.8 °F 39.9 °F 85% 29.76 in 10.0 mi SSE 5.8 mph - 0.02 in Rain Light Rain
1:39 PM 46.4 °F 43.5 °F 39.2 °F 76% 29.77 in 10.0 mi SE 5.8 mph - 0.00 in   Overcast
1:51 PM 46.0 °F 43.9 °F 41.0 °F 83% 29.76 in 10.0 mi Variable 4.6 mph - 0.00 in   Overcast
2:04 PM 46.4 °F 44.3 °F 39.2 °F 76% 29.77 in 10.0 mi ENE 4.6 mph - 0.00 in Rain Light Rain
2:12 PM 46.4 °F - 39.2 °F 76% 29.77 in 10.0 mi Calm Calm - 0.00 in   Overcast
2:27 PM 44.6 °F 41.4 °F 41.0 °F 87% 29.77 in 10.0 mi West 5.8 mph - 0.00 in   Overcast
2:51 PM 46.9 °F - 42.1 °F 83% 29.77 in 10.0 mi Calm Calm - 0.00 in   Overcast
3:51 PM 48.0 °F - 39.9 °F 74% 29.78 in 10.0 mi WSW 9.2 mph 17.3 mph N/A   Overcast
4:01 PM 42.8 °F 35.8 °F 39.2 °F 87% 29.81 in 8.0 mi SW 13.8 mph 24.2 mph 0.00 in Rain Light Rain
4:10 PM 42.8 °F 37.0 °F 39.2 °F 87% 29.81 in 4.0 mi SW 10.4 mph 17.3 mph 0.02 in Rain Rain
4:16 PM 42.8 °F 39.3 °F 37.4 °F 81% 29.81 in 4.0 mi SSW 5.8 mph - 0.03 in Rain Rain
4:31 PM 42.8 °F 40.1 °F 37.4 °F 81% 29.81 in 10.0 mi WSW 4.6 mph - 0.04 in Rain Light Rain
4:51 PM 46.0 °F - 37.9 °F 73% 29.81 in 10.0 mi Calm Calm - 0.04 in   Overcast
5:22 PM 46.4 °F - 39.2 °F 76% 29.82 in 10.0 mi Calm Calm - N/A   Overcast
5:51 PM 48.0 °F - 39.9 °F 74% 29.81 in 10.0 mi Calm Calm - N/A   Overcast
6:51 PM 43.0 °F 40.3 °F 39.0 °F 86% 29.86 in 6.0 mi SSW 4.6 mph - 0.03 in Rain Light Rain
6:59 PM 42.8 °F - 39.2 °F 87% 29.85 in 9.0 mi Calm Calm - 0.01 in Rain Light Rain
7:51 PM 45.0 °F 42.6 °F 39.0 °F 80% 29.85 in 10.0 mi East 4.6 mph - 0.02 in   Mostly Cloudy
8:22 PM 44.6 °F 42.2 °F 39.2 °F 81% 29.86 in 10.0 mi East 4.6 mph - N/A   Overcast
8:51 PM 45.0 °F - 39.0 °F 80% 29.85 in 10.0 mi Calm Calm - N/A   Overcast
9:35 PM 42.8 °F - 39.2 °F 87% 29.88 in 10.0 mi Calm Calm - 0.04 in Rain Light Rain
9:51 PM 43.0 °F 40.3 °F 37.9 °F 82% 29.88 in 10.0 mi NNW 4.6 mph - 0.04 in   Overcast
10:51 PM 42.1 °F 39.2 °F 37.9 °F 85% 29.90 in 10.0 mi North 4.6 mph - N/A   Overcast
11:51 PM 39.9 °F 35.8 °F 36.0 °F 86% 29.91 in 10.0 mi NNE 5.8 mph - 0.00 in   Mostly Cloudy